Simultaneous Nadir Overpasses (SNOs) Predictions

Prediction of SNOs between GOES-15 and METOP-A Satellite Orbit:

Table of predicted SNOs for the next 14.0 days since TLE Epoch: 1/7/2017
Index Date Time (GOES-15) GOES-15 Lat,Lon METOP-A Lat,Lon Distance(km) Time Diff (sec)
1 01/07/2017 18:14:33 -0.05,-134.59 -0.71,-131.70 329.11 80
2 01/09/2017 06:36:12 0.04,-134.70 -0.32,-136.29 181.80 80
3 01/10/2017 06:12:53 0.04,-134.74 0.81,-131.30 391.91 80
4 01/11/2017 18:34:24 -0.03,-134.76 0.20,-135.86 124.80 80
5 01/12/2017 18:11:05 -0.04,-134.81 -0.94,-130.87 449.09 80
6 01/14/2017 06:32:43 0.02,-134.91 -0.12,-135.45 62.13 80
7 01/16/2017 18:30:54 -0.01,-134.97 0.01,-135.01 5.87 80
8 01/19/2017 06:26:33 0.01,-135.11 0.13,-134.61 56.70 80
9 01/20/2017 18:48:03 -0.00,-135.12 0.89,-139.17 461.46 80




NCC Satellite Simultaneous Nadir Overpasses (SNOs) Prediction Service
